Gustavus, AK

12:44 PM AKDT on March 24, 2017 (GMT -0800)
Gustavus

Weather History for PAGS - February, 2013

Change the Weather History Date:

Sunday, February 17, 2013

  Actual Average Record
Temperature  
Mean Temperature 38 °F -  
Max Temperature 41 °F 35 °F 45 °F (1951)
Min Temperature 35 °F 21 °F 0 °F (1989)
Degree Days  
Heating Degree Days 27    
Moisture  
Dew Point 27 °F    
Average Humidity 67    
Maximum Humidity 75    
Minimum Humidity 61    
Precipitation  
Precipitation 0.00 in - - ()
Sea Level Pressure  
Sea Level Pressure 29.85 in    
Wind  
Wind Speed 11 mph (SE)    
Max Wind Speed 22 mph    
Max Gust Speed 31 mph    
Visibility 10 miles    
Events      
Averages and records for this station are not official NWS values.
T = Trace of Precipitation, MM = Missing Value Source: NWS Daily Summary

Daily Weather History Graph

Daily Weather History Graph

Search for Another Location

Airport or City:

Trip Planner

Search our weather history database for the weather conditions in past years. The results will help you decide how hot, cold, wet, or windy it might be!

Date:

Astronomy

Feb. 17, 2013 Rise Set
Actual Time 7:29 AM AKST 5:05 PM AKST
Civil Twilight 6:47 AM AKST 5:46 PM AKST
Nautical Twilight 6:01 AM AKST 6:33 PM AKST
Astronomical Twilight 5:15 AM AKST 7:19 PM AKST
Moon 9:39 AM AKST (2/17) 1:53 AM AKST (2/17)
Length of Visible Light 10h 58m
Length of Day
9h 36m
Waxing Crescent, 50% of the Moon is Illuminated
Feb 17
Waxing Crescent
Feb 25
Full
Mar 4
Last Quarter
Mar 11
New
Mar 19
First Quarter

Hourly Weather History & Observations

Time (AKST) Temp. Windchill Dew Point Humidity Pressure Visibility Wind Dir Wind Speed Gust Speed Precip Events Conditions
12:16 AM 35.6 °F 32.8 °F 24.8 °F 65% 30.12 in 10.0 mi SSE 3.5 mph - N/A   Overcast
12:36 AM 35.6 °F - 24.8 °F 65% 30.12 in 10.0 mi Calm Calm - N/A   Overcast
12:56 AM 35.6 °F 29.9 °F 26.6 °F 70% 30.12 in 10.0 mi East 6.9 mph - N/A   Overcast
1:16 AM 35.6 °F 29.2 °F 26.6 °F 70% 30.11 in 10.0 mi East 8.1 mph - N/A   Overcast
1:36 AM 35.6 °F 29.9 °F 26.6 °F 70% 30.11 in 10.0 mi East 6.9 mph - N/A   Overcast
1:56 AM 35.6 °F 29.2 °F 26.6 °F 70% 30.10 in 10.0 mi ESE 8.1 mph - N/A   Overcast
2:16 AM 35.6 °F 29.2 °F 26.6 °F 70% 30.10 in 10.0 mi ESE 8.1 mph - N/A   Overcast
2:36 AM 35.6 °F 28.0 °F 26.6 °F 70% 30.09 in 10.0 mi ESE 10.4 mph - N/A   Overcast
2:56 AM 35.6 °F 27.1 °F 26.6 °F 70% 30.08 in 10.0 mi ESE 12.7 mph - N/A   Overcast
3:16 AM 35.6 °F 28.6 °F 26.6 °F 70% 30.07 in 10.0 mi SE 9.2 mph - N/A   Overcast
3:36 AM 35.6 °F 29.2 °F 26.6 °F 70% 30.07 in 10.0 mi SE 8.1 mph - N/A   Overcast
3:56 AM 35.6 °F 28.0 °F 26.6 °F 70% 30.06 in 10.0 mi SE 10.4 mph - N/A   Overcast
4:16 AM 35.6 °F 28.6 °F 26.6 °F 70% 30.05 in 10.0 mi SSE 9.2 mph - N/A   Overcast
4:36 AM 35.6 °F 28.6 °F 24.8 °F 65% 30.04 in 10.0 mi SSE 9.2 mph - N/A   Overcast
4:56 AM 35.6 °F 28.6 °F 26.6 °F 70% 30.03 in 10.0 mi SE 9.2 mph - N/A   Overcast
5:16 AM 35.6 °F 27.1 °F 26.6 °F 70% 30.02 in 10.0 mi SE 12.7 mph 16.1 mph N/A   Overcast
5:36 AM 35.6 °F 28.6 °F 26.6 °F 70% 30.01 in 10.0 mi ESE 9.2 mph - N/A   Overcast
5:56 AM 35.6 °F 27.5 °F 26.6 °F 70% 30.00 in 10.0 mi SE 11.5 mph - N/A   Overcast
6:16 AM 35.6 °F 27.5 °F 26.6 °F 70% 29.99 in 9.0 mi ESE 11.5 mph - N/A   Overcast
6:36 AM 35.6 °F 26.2 °F 26.6 °F 70% 29.97 in 10.0 mi SE 15.0 mph 18.4 mph N/A   Overcast
6:56 AM 35.6 °F 25.5 °F 26.6 °F 70% 29.96 in 10.0 mi SE 17.3 mph 20.7 mph N/A   Overcast
7:16 AM 35.6 °F 26.2 °F 26.6 °F 70% 29.96 in 10.0 mi SE 15.0 mph 19.6 mph N/A   Overcast
7:36 AM 35.6 °F 27.1 °F 26.6 °F 70% 29.95 in 10.0 mi SE 12.7 mph - N/A   Overcast
7:56 AM 35.6 °F 27.1 °F 26.6 °F 70% 29.94 in 9.0 mi SE 12.7 mph - N/A   Overcast
8:16 AM 35.6 °F 27.5 °F 28.4 °F 75% 29.94 in 7.0 mi SE 11.5 mph - N/A   Overcast
8:36 AM 35.6 °F 27.1 °F 26.6 °F 70% 29.93 in 10.0 mi ESE 12.7 mph - N/A   Overcast
8:56 AM 35.6 °F 28.0 °F 28.4 °F 75% 29.92 in 10.0 mi SE 10.4 mph - N/A   Overcast
9:16 AM 35.6 °F 27.5 °F 28.4 °F 75% 29.91 in 10.0 mi SE 11.5 mph - N/A   Overcast
9:36 AM 35.6 °F 26.2 °F 28.4 °F 75% 29.91 in 10.0 mi SE 15.0 mph 19.6 mph N/A   Overcast
9:56 AM 35.6 °F 27.5 °F 28.4 °F 75% 29.90 in 10.0 mi SE 11.5 mph - N/A   Mostly Cloudy
10:16 AM 35.6 °F 26.2 °F 28.4 °F 75% 29.90 in 10.0 mi SE 15.0 mph 18.4 mph N/A   Overcast
10:36 AM 35.6 °F 25.9 °F 28.4 °F 75% 29.89 in 10.0 mi SE 16.1 mph 20.7 mph N/A   Overcast
10:56 AM 37.4 °F 28.2 °F 28.4 °F 70% 29.88 in 10.0 mi SE 16.1 mph 23.0 mph N/A   Overcast
11:16 AM 37.4 °F 28.9 °F 28.4 °F 70% 29.88 in 10.0 mi SE 13.8 mph 23.0 mph N/A   Overcast
11:36 AM 37.4 °F 28.9 °F 28.4 °F 70% 29.86 in 10.0 mi SE 13.8 mph 20.7 mph N/A   Overcast
11:56 AM 37.4 °F 27.5 °F 26.6 °F 65% 29.85 in 10.0 mi SE 18.4 mph 24.2 mph N/A   Scattered Clouds
12:16 PM 37.4 °F 28.9 °F 28.4 °F 70% 29.84 in 10.0 mi ESE 13.8 mph - N/A   Mostly Cloudy
12:36 PM 37.4 °F 28.5 °F 28.4 °F 70% 29.84 in 10.0 mi ESE 15.0 mph 19.6 mph N/A   Overcast
12:56 PM 37.4 °F 27.2 °F 26.6 °F 65% 29.83 in 10.0 mi SE 19.6 mph - N/A   Overcast
1:16 PM 37.4 °F 28.5 °F 26.6 °F 65% 29.81 in 10.0 mi SE 15.0 mph - N/A   Overcast
1:36 PM 37.4 °F 28.5 °F 26.6 °F 65% 29.81 in 10.0 mi SE 15.0 mph - N/A   Overcast
1:56 PM 37.4 °F 28.5 °F 26.6 °F 65% 29.80 in 10.0 mi ESE 15.0 mph 21.9 mph N/A   Overcast
2:16 PM 37.4 °F 28.2 °F 26.6 °F 65% 29.79 in 10.0 mi SE 16.1 mph 24.2 mph N/A   Mostly Cloudy
2:36 PM 37.4 °F 29.8 °F 26.6 °F 65% 29.78 in 10.0 mi ESE 11.5 mph 16.1 mph N/A   Mostly Cloudy
2:56 PM 37.4 °F 28.2 °F 26.6 °F 65% 29.77 in 10.0 mi SE 16.1 mph - N/A   Mostly Cloudy
3:16 PM 37.4 °F 28.5 °F 26.6 °F 65% 29.77 in 10.0 mi SE 15.0 mph 20.7 mph N/A   Mostly Cloudy
3:36 PM 39.2 °F 30.2 °F 26.6 °F 61% 29.76 in 10.0 mi SE 17.3 mph 21.9 mph N/A   Overcast
3:56 PM 39.2 °F 31.6 °F 26.6 °F 61% 29.75 in 10.0 mi ESE 12.7 mph - N/A   Overcast
4:16 PM 39.2 °F 32.0 °F 26.6 °F 61% 29.74 in 10.0 mi ESE 11.5 mph 19.6 mph N/A   Overcast
4:36 PM 39.2 °F 32.5 °F 26.6 °F 61% 29.72 in 10.0 mi ESE 10.4 mph - N/A   Overcast
4:56 PM 39.2 °F 32.0 °F 26.6 °F 61% 29.71 in 10.0 mi SE 11.5 mph - N/A   Overcast
5:16 PM 39.2 °F 32.5 °F 26.6 °F 61% 29.70 in 10.0 mi ESE 10.4 mph 21.9 mph N/A   Overcast
5:36 PM 37.4 °F 32.1 °F 26.6 °F 65% 29.69 in 10.0 mi ESE 6.9 mph - N/A   Overcast
5:56 PM 37.4 °F 32.1 °F 26.6 °F 65% 29.69 in 10.0 mi ESE 6.9 mph 16.1 mph N/A   Overcast
6:16 PM 37.4 °F 34.9 °F 28.4 °F 70% 29.68 in 10.0 mi East 3.5 mph - N/A   Overcast
6:36 PM 37.4 °F 33.8 °F 28.4 °F 70% 29.67 in 10.0 mi East 4.6 mph - N/A   Overcast
6:56 PM 39.2 °F 30.5 °F 26.6 °F 61% 29.66 in 10.0 mi SE 16.1 mph 21.9 mph N/A   Overcast
7:16 PM 39.2 °F 30.5 °F 26.6 °F 61% 29.66 in 10.0 mi ESE 16.1 mph 21.9 mph N/A   Overcast
7:36 PM 39.2 °F 31.2 °F 28.4 °F 65% 29.65 in 10.0 mi ESE 13.8 mph 20.7 mph N/A   Overcast
7:56 PM 39.2 °F 29.6 °F 26.6 °F 61% 29.64 in 10.0 mi SE 19.6 mph 26.5 mph N/A   Overcast
8:16 PM 39.2 °F 30.2 °F 28.4 °F 65% 29.63 in 10.0 mi SE 17.3 mph 25.3 mph N/A   Overcast
8:36 PM 39.2 °F 30.5 °F 28.4 °F 65% 29.62 in 10.0 mi SE 16.1 mph 24.2 mph N/A   Overcast
8:56 PM 39.2 °F 29.3 °F 28.4 °F 65% 29.62 in 10.0 mi SE 20.7 mph 26.5 mph N/A   Overcast
9:16 PM 41.0 °F 32.2 °F 28.4 °F 61% 29.62 in 10.0 mi SE 18.4 mph 23.0 mph N/A   Overcast
9:36 PM 39.2 °F 29.0 °F 28.4 °F 65% 29.61 in 10.0 mi SE 21.9 mph 29.9 mph N/A   Overcast
9:56 PM 39.2 °F 32.0 °F 28.4 °F 65% 29.61 in 10.0 mi SE 11.5 mph 24.2 mph N/A   Overcast
10:16 PM 39.2 °F 30.5 °F 28.4 °F 65% 29.61 in 10.0 mi SE 16.1 mph 23.0 mph N/A   Overcast
10:36 PM 39.2 °F 29.8 °F 28.4 °F 65% 29.61 in 10.0 mi SE 18.4 mph 31.1 mph N/A   Overcast
10:56 PM 39.2 °F 30.2 °F 28.4 °F 65% 29.61 in 10.0 mi SE 17.3 mph - N/A   Overcast
11:16 PM 39.2 °F 30.5 °F 28.4 °F 65% 29.61 in 10.0 mi SE 16.1 mph 24.2 mph N/A   Overcast
11:36 PM 39.2 °F 30.2 °F 28.4 °F 65% 29.61 in 10.0 mi SE 17.3 mph 24.2 mph N/A   Overcast
11:56 PM 39.2 °F 29.8 °F 30.2 °F 70% 29.61 in 10.0 mi SSE 18.4 mph 27.6 mph N/A   Overcast